TimeCDT,TemperatureF,Dew PointF,Humidity,Sea Level PressureIn,VisibilityMPH,Wind Direction,Wind SpeedMPH,Gust SpeedMPH,PrecipitationIn,Events,Conditions,WindDirDegrees,DateUTC
12:53 AM,63.0,53.1,70,30.05,10.0,SSE,4.6,-,N/A,,Scattered Clouds,160,2013-07-04 05:53:00
1:53 AM,63.0,52.0,67,30.05,10.0,SE,5.8,-,N/A,,Clear,140,2013-07-04 06:53:00
2:53 AM,60.1,53.1,78,30.04,10.0,Calm,Calm,-,N/A,,Clear,0,2013-07-04 07:53:00
3:53 AM,59.0,51.1,75,30.04,10.0,Calm,Calm,-,N/A,,Clear,0,2013-07-04 08:53:00
4:53 AM,57.0,52.0,83,30.05,10.0,Calm,Calm,-,N/A,,Clear,0,2013-07-04 09:53:00
5:53 AM,57.9,52.0,81,30.06,10.0,Calm,Calm,-,N/A,,Clear,0,2013-07-04 10:53:00
6:53 AM,57.9,54.0,87,30.07,10.0,Calm,Calm,-,N/A,,Clear,0,2013-07-04 11:53:00
7:53 AM,64.0,54.0,70,30.06,10.0,SSE,4.6,-,N/A,,Clear,160,2013-07-04 12:53:00
8:53 AM,71.1,55.0,57,30.07,10.0,SE,5.8,-,N/A,,Clear,130,2013-07-04 13:53:00
9:53 AM,75.0,55.9,51,30.07,10.0,Calm,Calm,-,N/A,,Clear,0,2013-07-04 14:53:00
10:53 AM,80.1,57.0,45,30.07,10.0,Calm,Calm,-,N/A,,Clear,0,2013-07-04 15:53:00
11:53 AM,77.0,54.0,45,30.07,8.0,SW,4.6,-,0.00,Rain,Light Rain,230,2013-07-04 16:53:00
12:53 PM,82.0,54.0,38,30.05,10.0,NNW,4.6,-,0.01,,Partly Cloudy,340,2013-07-04 17:53:00
1:53 PM,84.0,52.0,33,30.03,10.0,Variable,5.8,-,N/A,,Partly Cloudy,0,2013-07-04 18:53:00
2:53 PM,84.9,52.0,32,30.01,10.0,Calm,Calm,-,N/A,,Partly Cloudy,0,2013-07-04 19:53:00
3:53 PM,84.9,50.0,30,30.00,10.0,Variable,3.5,-,N/A,,Clear,0,2013-07-04 20:53:00
4:53 PM,82.0,51.1,34,29.99,10.0,East,4.6,-,N/A,,Overcast,90,2013-07-04 21:53:00
5:48 PM,68.0,59.0,73,30.04,1.5,NW,19.6,26.5,0.17,Rain,Heavy Rain,310,2013-07-04 22:48:00
5:53 PM,66.0,59.0,78,30.03,0.8,NNW,17.3,26.5,0.34,Rain-Thunderstorm,Heavy Thunderstorms and Rain,330,2013-07-04 22:53:00
6:01 PM,64.4,53.6,68,30.06,1.0,North,12.7,23.0,0.27,Rain-Thunderstorm,Heavy Thunderstorms and Rain,350,2013-07-04 23:01:00
6:11 PM,69.8,53.6,56,30.06,1.2,ESE,8.1,24.2,0.48,Rain,Heavy Rain,120,2013-07-04 23:11:00
6:22 PM,69.8,53.6,56,30.04,2.0,ENE,8.1,-,0.57,Rain-Thunderstorm,Heavy Rain,70,2013-07-04 23:22:00
6:30 PM,68.0,57.2,68,30.03,6.0,ENE,4.6,-,0.57,Rain-Thunderstorm,Light Rain,60,2013-07-04 23:30:00
6:38 PM,69.8,59.0,68,30.03,10.0,NE,4.6,-,0.57,Rain,Light Rain,50,2013-07-04 23:38:00
6:53 PM,71.1,57.9,63,30.00,10.0,NE,4.6,-,0.57,,Scattered Clouds,40,2013-07-04 23:53:00
7:53 PM,70.0,63.0,78,30.00,10.0,NNE,8.1,-,N/A,,Clear,20,2013-07-05 00:53:00
8:53 PM,66.9,59.0,76,30.01,10.0,NE,3.5,-,N/A,,Clear,40,2013-07-05 01:53:00
9:53 PM,63.0,60.1,90,30.03,10.0,Calm,Calm,-,N/A,,Clear,0,2013-07-05 02:53:00
10:53 PM,63.0,59.0,87,30.03,9.0,Calm,Calm,-,N/A,,Clear,0,2013-07-05 03:53:00
11:53 PM,64.9,57.0,75,30.02,10.0,South,4.6,-,N/A,,Clear,190,2013-07-05 04:53:00